Terminal Aerodrome Forecast
Issued by NWS Spokane, WA

Home | Current Version | Previous Version | Text Only | Print | Product List | Glossary On
Versions: 1 2 3 4 5 6 7 8 9 10 11 12 13 14 15 16 17 18 19 20 21 22 23 24 25 26 27 28 29 30 31 32 33 34 35
000
FTUS46 KOTX 221129
TAFLWS
TAF
KLWS 221129Z 2212/2312 21020G30KT P6SM -SHRA OVC040 WS020/23050KT
     FM221700 23017G35KT P6SM VCSH BKN050 OVC200
     FM222000 24024G32KT P6SM SCT050
     FM222300 26018G25KT P6SM SCT250
     FM230300 22007KT P6SM SKC=

USA.gov is the U.S. government's official web portal to all federal, state and local government web resources and services.